OE3MAA Weather Reports


time (UTC)temp
C
wind
direction
speed
KPH
gust
KPH
rain 1hr
cm
rain 24hr
cm
rain mn
cm
humidity
%
barometer
mb
20260506001017 14 270 4.8 9.7 0.00 0.00 0.00 76 1005.8
20260506000016 13 270 4.8 9.7 0.00 0.00 0.00 77 1005.6
20260505234016 13 338 3.2 4.8 0.00 0.00 0.00 77 1005.4
20260505233016 13 315 1.6 6.4 0.00 0.00 0.00 77 1005.4
20260505232016 13 315 1.6 3.2 0.00 0.00 0.00 77 1005.3
20260505231016 12 315 3.2 6.4 0.00 0.00 0.00 78 1005.2
20260505230017 12 293 3.2 4.8 0.00 0.00 0.00 77 1005.1
20260505225016 12 293 3.2 6.4 0.00 0.00 0.00 76 1004.9
20260505224016 12 293 3.2 6.4 0.00 0.00 0.00 75 1004.7
20260505223016 12 248 1.6 4.8 0.00 0.00 0.00 74 1004.5
20260505222016 12 338 1.6 4.8 0.00 0.00 0.00 73 1004.3
20260505221016 12 338 3.2 6.4 0.00 0.00 0.00 72 1004.3
20260505220016 12 338 1.6 4.8 0.00 0.00 0.00 71 1004.3
20260505215016 13 0 1.6 4.8 0.00 0.00 0.00 70 1004.2
20260505214016 13 338 3.2 4.8 0.00 0.00 0.00 68 1004.1
20260505213016 14 0 1.6 4.8 0.00 0.00 0.00 66 1004.1
20260505212038 15 68 1.6 4.8 0.00 0.00 0.00 64 1003.9
20260505211019 15 90 3.2 8.0 0.00 0.00 0.00 63 1003.9
20260505210016 15 90 3.2 8.0 0.00 0.00 0.00 62 1003.9
20260505205016 15 90 4.8 9.7 0.00 0.00 0.00 61 1003.7
20260505203056 16 90 3.2 9.7 0.00 0.00 0.00 59 1003.6
20260505202016 16 135 4.8 14.5 0.00 0.00 0.00 58 1003.4
20260505201016 16 113 6.4 11.3 0.00 0.00 0.00 57 1003.4
20260505200016 17 113 8.0 17.7 0.00 0.00 0.00 56 1003.3
20260505195016 17 113 8.0 12.9 0.00 0.00 0.00 55 1003.3
20260505194016 17 135 9.7 16.1 0.00 0.00 0.00 54 1003.2
20260505193018 17 113 11.3 20.9 0.00 0.00 0.00 53 1003.3
20260505192016 18 135 9.7 20.9 0.00 0.00 0.00 53 1003.2
20260505191036 18 113 11.3 19.3 0.00 0.00 0.00 52 1003.1
20260505190036 18 135 11.3 22.5 0.00 0.00 0.00 51 1003.2
20260505185016 18 135 11.3 22.5 0.00 0.00 0.00 50 1003.1
20260505184036 19 135 11.3 17.7 0.00 0.00 0.00 49 1003.2
20260505183016 19 135 11.3 19.3 0.00 0.00 0.00 48 1003.1
20260505181017 20 135 14.5 29.0 0.00 0.00 0.00 46 1003.1
20260505180016 21 135 12.9 20.9 0.00 0.00 0.00 45 1002.9
20260505175016 21 135 19.3 33.8 0.00 0.00 0.00 44 1003.0
20260505174016 21 135 16.1 30.6 0.00 0.00 0.00 44 1002.9
20260505173016 22 135 19.3 32.2 0.00 0.00 0.00 43 1002.9
20260505172016 22 135 19.3 32.2 0.00 0.00 0.00 43 1002.9
20260505171036 22 135 16.1 25.7 0.00 0.00 0.00 43 1003.1
20260505170016 22 135 16.1 30.6 0.00 0.00 0.00 43 1003.1
20260505164016 23 135 17.7 33.8 0.00 0.00 0.00 42 1003.0
20260505163016 23 135 19.3 30.6 0.00 0.00 0.00 42 1002.9
20260505162016 23 135 22.5 33.8 0.00 0.00 0.00 42 1003.0
20260505161018 23 158 17.7 30.6 0.00 0.00 0.00 41 1003.0
20260505153016 25 135 25.7 43.5 0.00 0.00 0.00 38 1003.1
20260505152016 25 158 19.3 35.4 0.00 0.00 0.00 37 1003.1
20260505125016 27 158 20.9 37.0 0.00 0.00 0.00 28 1004.7
20260505124016 27 158 20.9 38.6 0.00 0.00 0.00 27 1004.8
20260505123016 27 135 19.3 33.8 0.00 0.00 0.00 28 1004.9
20260505122017 27 135 20.9 32.2 0.00 0.00 0.00 28 1005.1
20260505121016 27 135 19.3 32.2 0.00 0.00 0.00 31 1005.2
20260505120038 26 135 20.9 38.6 0.00 0.00 0.00 32 1005.3
20260505115016 26 135 19.3 35.4 0.00 0.00 0.00 32 1005.5
20260505114016 26 113 19.3 33.8 0.00 0.00 0.00 36 1005.7
20260505113036 25 135 17.7 33.8 0.00 0.00 0.00 39 1005.7
20260505112016 25 135 14.5 27.4 0.00 0.00 0.00 40 1006.0
20260505111016 25 135 16.1 27.4 0.00 0.00 0.00 42 1006.3
20260505102018 22 135 14.5 22.5 0.00 0.00 0.00 47 1007.0
20260505101016 22 135 14.5 20.9 0.00 0.00 0.00 47 1007.1
20260505100016 22 135 12.9 24.1 0.00 0.00 0.00 46 1007.3
20260505095016 21 135 11.3 20.9 0.00 0.00 0.00 48 1007.5
20260505094018 21 135 12.9 22.5 0.00 0.00 0.00 50 1007.6
20260505093038 20 113 14.5 29.0 0.00 0.00 0.00 48 1007.7
20260505092016 21 135 12.9 22.5 0.00 0.00 0.00 49 1007.9
20260505091017 20 135 11.3 19.3 0.00 0.00 0.00 49 1007.9
20260505090016 20 113 14.5 25.7 0.00 0.00 0.00 50 1007.8
20260505085016 20 113 12.9 20.9 0.00 0.00 0.00 53 1008.0
20260505084016 20 135 9.7 22.5 0.00 0.00 0.00 52 1008.1
20260505083016 19 113 9.7 19.3 0.00 0.00 0.00 52 1008.1
20260505081018 18 113 9.7 19.3 0.00 0.00 0.00 56 1008.0
20260505080016 17 135 8.0 20.9 0.00 0.00 0.00 56 1008.1
20260505075018 17 113 8.0 14.5 0.00 0.00 0.00 59 1008.2
20260505074037 17 113 8.0 14.5 0.00 0.00 0.00 58 1008.3
20260505073018 17 90 8.0 17.7 0.00 0.00 0.00 60 1008.2
20260505072018 16 135 8.0 14.5 0.00 0.00 0.00 63 1008.4
20260505071018 15 113 4.8 12.9 0.00 0.00 0.00 63 1008.4
20260505070018 15 135 8.0 14.5 0.00 0.00 0.00 64 1008.4
20260505064016 15 135 6.4 11.3 0.00 0.00 0.00 64 1008.5
20260505063016 15 135 6.4 11.3 0.00 0.00 0.00 64 1008.4
20260505062017 14 113 6.4 14.5 0.00 0.00 0.00 64 1008.4
20260505061018 14 113 8.0 14.5 0.00 0.00 0.00 65 1008.4
20260505060018 13 90 6.4 12.9 0.00 0.00 0.00 65 1008.4
20260505055016 13 135 4.8 11.3 0.00 0.00 0.00 66 1008.4
20260505054037 13 90 6.4 11.3 0.00 0.00 0.00 68 1008.3
20260505052017 11 68 4.8 11.3 0.00 0.00 0.00 68 1008.3
20260505051017 11 90 6.4 11.3 0.00 0.00 0.00 69 1008.3
20260505041036 11 68 4.8 11.3 0.00 0.00 0.00 69 1008.1
20260505040016 11 90 4.8 9.7 0.00 0.00 0.00 69 1008.1
20260505035018 11 68 4.8 8.0 0.00 0.00 0.00 69 1008.1
20260505034037 10 68 3.2 4.8 0.00 0.00 0.00 70 1008.1
20260505033018 10 90 3.2 8.0 0.00 0.00 0.00 69 1008.1
20260505032017 11 68 1.6 4.8 0.00 0.00 0.00 69 1008.2
20260505031016 11 68 3.2 9.7 0.00 0.00 0.00 70 1008.2
20260505030036 10 68 3.2 9.7 0.00 0.00 0.00 71 1008.1
20260505025016 10 68 1.6 4.8 0.00 0.00 0.00 73 1008.2
20260505024016 9 0.0 0.0 0.00 0.00 0.00 75 1008.2
20260505023016 8 0.0 0.0 0.00 0.00 0.00 75 1008.2
20260505022018 9 0.0 0.0 0.00 0.00 0.00 73 1008.4
20260505021138 10 0.0 0.0 0.00 0.00 0.00 71 1008.4
20260505020016 11 0.0 0.0 0.00 0.00 0.00 68 1008.5
20260505015017 11 68 1.6 8.0 0.00 0.00 0.00 66 1008.5
20260505014016 12 68 1.6 3.2 0.00 0.00 0.00 65 1008.6
20260505013038 12 90 3.2 6.4 0.00 0.00 0.00 63 1008.5
20260505011016 13 90 4.8 12.9 0.00 0.00 0.00 61 1008.6
20260505010017 13 68 3.2 8.0 0.00 0.00 0.00 61 1008.7
20260505005018 13 68 4.8 11.3 0.00 0.00 0.00 60 1008.7
20260505004016 13 68 4.8 9.7 0.00 0.00 0.00 60 1008.7
20260505003037 13 45 3.2 6.4 0.00 0.00 0.00 60 1008.9